Time,TemperatureF,DewpointF,PressureIn,WindDirection,WindDirectionDegrees,WindSpeedMPH,WindSpeedGustMPH,Humidity,HourlyPrecipIn,Conditions,Clouds,dailyrainin,SoftwareType,DateUTC
2013-12-14 00:00:00,26.1,19.6,30.35,North,11,0.0,2.0,76,0.00,,,0.00,VWS V15.00,2013-12-14 05:00:00,
2013-12-14 00:01:00,25.2,20.2,30.33,West,280,0.0,1.0,81,0.00,,,0.00,VWS V15.00,2013-12-14 05:01:00,
2013-12-14 00:06:00,25.2,20.2,30.33,West,280,0.0,0.0,81,0.00,,,0.00,VWS V15.00,2013-12-14 05:06:00,
2013-12-14 00:10:00,26.0,19.8,30.35,NE,35,0.0,5.0,77,0.00,,,0.00,VWS V15.00,2013-12-14 05:10:00,
2013-12-14 00:11:00,25.4,19.8,30.33,North,5,0.0,2.0,79,0.00,,,0.00,VWS V15.00,2013-12-14 05:11:00,
2013-12-14 00:16:00,25.7,19.8,30.33,North,5,0.0,3.0,78,0.00,,,0.00,VWS V15.00,2013-12-14 05:16:00,
2013-12-14 00:20:00,25.8,19.6,30.35,NE,40,3.0,6.0,77,0.00,,,0.00,VWS V15.00,2013-12-14 05:20:00,
2013-12-14 00:21:00,25.7,19.5,30.33,North,5,0.0,3.0,77,0.00,,,0.00,VWS V15.00,2013-12-14 05:21:00,
2013-12-14 00:26:00,25.8,19.6,30.33,North,5,0.0,0.0,77,0.00,,,0.00,VWS V15.00,2013-12-14 05:26:00,
2013-12-14 00:30:00,25.6,19.4,30.34,NE,46,0.0,4.0,77,0.00,,,0.00,VWS V15.00,2013-12-14 05:30:00,
2013-12-14 00:31:00,25.8,19.3,30.34,North,5,0.0,2.0,76,0.00,,,0.00,VWS V15.00,2013-12-14 05:31:00,
2013-12-14 00:36:00,25.9,19.4,30.34,North,5,0.0,1.0,76,0.00,,,0.00,VWS V15.00,2013-12-14 05:36:00,
2013-12-14 00:40:00,25.5,19.6,30.34,NE,51,4.0,6.0,78,0.00,,,0.00,VWS V15.00,2013-12-14 05:40:00,
2013-12-14 00:41:00,26.0,19.5,30.34,North,11,1.0,5.0,76,0.00,,,0.00,VWS V15.00,2013-12-14 05:41:00,
2013-12-14 00:46:00,26.0,19.2,30.35,North,11,0.0,2.0,75,0.00,,,0.00,VWS V15.00,2013-12-14 05:46:00,
2013-12-14 00:50:00,25.3,19.4,30.34,ENE,59,0.0,6.0,78,0.00,,,0.00,VWS V15.00,2013-12-14 05:50:00,
2013-12-14 00:51:00,26.1,19.3,30.35,North,11,0.0,2.0,75,0.00,,,0.00,VWS V15.00,2013-12-14 05:51:00,
2013-12-14 00:56:00,26.1,19.3,30.35,North,11,1.0,1.0,75,0.00,,,0.00,VWS V15.00,2013-12-14 05:56:00,
2013-12-14 01:00:00,25.2,19.3,30.36,ENE,59,0.0,0.0,78,0.00,,,0.00,VWS V15.00,2013-12-14 06:00:00,
2013-12-14 01:01:00,26.1,19.3,30.35,North,11,1.0,2.0,75,0.00,,,0.00,VWS V15.00,2013-12-14 06:01:00,
2013-12-14 01:06:00,26.1,19.6,30.35,North,11,0.0,2.0,76,0.00,,,0.00,VWS V15.00,2013-12-14 06:06:00,
2013-12-14 01:10:00,25.2,19.3,30.36,ENE,59,1.0,2.0,78,0.00,,,0.00,VWS V15.00,2013-12-14 06:10:00,
2013-12-14 01:11:00,26.0,19.5,30.35,NE,35,0.0,5.0,76,0.00,,,0.00,VWS V15.00,2013-12-14 06:11:00,
2013-12-14 01:16:00,26.0,19.8,30.35,NNE,23,4.0,5.0,77,0.00,,,0.00,VWS V15.00,2013-12-14 06:16:00,
2013-12-14 01:20:00,25.1,19.5,30.36,ENE,58,1.0,2.0,79,0.00,,,0.00,VWS V15.00,2013-12-14 06:20:00,
2013-12-14 01:21:00,25.8,19.6,30.35,NE,40,0.0,6.0,77,0.00,,,0.00,VWS V15.00,2013-12-14 06:21:00,
2013-12-14 01:26:00,25.7,19.5,30.35,NE,40,0.0,3.0,77,0.00,,,0.00,VWS V15.00,2013-12-14 06:26:00,
2013-12-14 01:30:00,25.0,19.4,30.36,NE,49,1.0,4.0,79,0.00,,,0.00,VWS V15.00,2013-12-14 06:30:00,
2013-12-14 01:31:00,25.7,19.5,30.34,NE,46,0.0,4.0,77,0.00,,,0.00,VWS V15.00,2013-12-14 06:31:00,
2013-12-14 01:36:00,25.6,19.7,30.34,NE,49,5.0,5.0,78,0.00,,,0.00,VWS V15.00,2013-12-14 06:36:00,
2013-12-14 01:40:00,24.9,19.3,30.36,NE,47,1.0,3.0,79,0.00,,,0.00,VWS V15.00,2013-12-14 06:40:00,
2013-12-14 01:41:00,25.5,19.6,30.34,NE,37,2.0,6.0,78,0.00,,,0.00,VWS V15.00,2013-12-14 06:41:00,
2013-12-14 01:46:00,25.4,19.5,30.34,NE,55,3.0,6.0,78,0.00,,,0.00,VWS V15.00,2013-12-14 06:46:00,
2013-12-14 01:50:00,24.8,19.2,30.36,NE,47,1.0,4.0,79,0.00,,,0.00,VWS V15.00,2013-12-14 06:50:00,
2013-12-14 01:51:00,25.3,19.4,30.34,ENE,59,0.0,6.0,78,0.00,,,0.00,VWS V15.00,2013-12-14 06:51:00,
2013-12-14 01:56:00,25.3,19.4,30.34,ENE,59,0.0,0.0,78,0.00,,,0.00,VWS V15.00,2013-12-14 06:56:00,
2013-12-14 02:00:00,24.7,19.4,30.36,NE,47,2.0,3.0,80,0.00,,,0.00,VWS V15.00,2013-12-14 07:00:00,
2013-12-14 02:01:00,25.3,19.4,30.36,ENE,59,0.0,0.0,78,0.00,,,0.00,VWS V15.00,2013-12-14 07:01:00,
2013-12-14 02:06:00,25.2,19.3,30.36,ENE,59,1.0,1.0,78,0.00,,,0.00,VWS V15.00,2013-12-14 07:06:00,
2013-12-14 02:10:00,24.6,19.3,30.36,NNE,17,2.0,5.0,80,0.00,,,0.00,VWS V15.00,2013-12-14 07:10:00,
2013-12-14 02:11:00,25.2,19.3,30.36,ENE,59,1.0,2.0,78,0.00,,,0.00,VWS V15.00,2013-12-14 07:11:00,
2013-12-14 02:16:00,25.2,19.6,30.36,ENE,59,0.0,2.0,79,0.00,,,0.00,VWS V15.00,2013-12-14 07:16:00,
2013-12-14 02:20:00,24.5,19.2,30.34,NE,42,3.0,6.0,80,0.00,,,0.00,VWS V15.00,2013-12-14 07:20:00,
2013-12-14 02:21:00,25.1,19.5,30.36,ENE,58,0.0,2.0,79,0.00,,,0.00,VWS V15.00,2013-12-14 07:21:00,
2013-12-14 02:26:00,25.1,19.5,30.36,NE,55,1.0,3.0,79,0.00,,,0.00,VWS V15.00,2013-12-14 07:26:00,
2013-12-14 02:30:00,24.4,18.8,30.36,NNE,26,4.0,5.0,79,0.00,,,0.00,VWS V15.00,2013-12-14 07:30:00,
2013-12-14 02:31:00,25.0,19.4,30.36,NE,49,0.0,4.0,79,0.00,,,0.00,VWS V15.00,2013-12-14 07:31:00,
2013-12-14 02:36:00,24.9,19.3,30.36,NE,49,0.0,2.0,79,0.00,,,0.00,VWS V15.00,2013-12-14 07:36:00,
2013-12-14 02:40:00,24.3,18.4,30.36,NNE,26,0.0,4.0,78,0.00,,,0.00,VWS V15.00,2013-12-14 07:40:00,
2013-12-14 02:41:00,24.9,19.3,30.36,NE,47,0.0,3.0,79,0.00,,,0.00,VWS V15.00,2013-12-14 07:41:00,
2013-12-14 02:46:00,24.9,19.3,30.36,NE,47,2.0,3.0,79,0.00,,,0.00,VWS V15.00,2013-12-14 07:46:00,
2013-12-14 02:50:00,24.3,18.4,30.36,NNE,26,0.0,3.0,78,0.00,,,0.00,VWS V15.00,2013-12-14 07:50:00,
2013-12-14 02:51:00,24.8,19.2,30.36,NE,47,1.0,4.0,79,0.00,,,0.00,VWS V15.00,2013-12-14 07:51:00,
2013-12-14 02:56:00,24.7,19.1,30.36,NE,47,0.0,1.0,79,0.00,,,0.00,VWS V15.00,2013-12-14 07:56:00,
2013-12-14 03:00:00,24.2,18.3,30.37,NNE,28,0.0,4.0,78,0.00,,,0.00,VWS V15.00,2013-12-14 08:00:00,
2013-12-14 03:01:00,24.7,19.1,30.36,NE,48,1.0,3.0,79,0.00,,,0.00,VWS V15.00,2013-12-14 08:01:00,
2013-12-14 03:06:00,24.6,19.3,30.36,NE,47,2.0,4.0,80,0.00,,,0.00,VWS V15.00,2013-12-14 08:06:00,
2013-12-14 03:10:00,24.2,18.3,30.37,NNE,28,0.0,1.0,78,0.00,,,0.00,VWS V15.00,2013-12-14 08:10:00,
2013-12-14 03:11:00,24.6,19.3,30.36,NNE,17,2.0,5.0,80,0.00,,,0.00,VWS V15.00,2013-12-14 08:11:00,
2013-12-14 03:16:00,24.5,19.2,30.36,NNE,19,0.0,4.0,80,0.00,,,0.00,VWS V15.00,2013-12-14 08:16:00,
2013-12-14 03:20:00,24.2,18.6,30.36,NNE,28,0.0,1.0,79,0.00,,,0.00,VWS V15.00,2013-12-14 08:20:00,
2013-12-14 03:21:00,24.5,19.2,30.34,NNE,19,2.0,4.0,80,0.00,,,0.00,VWS V15.00,2013-12-14 08:21:00,
2013-12-14 03:26:00,24.5,19.2,30.34,NE,45,4.0,5.0,80,0.00,,,0.00,VWS V15.00,2013-12-14 08:26:00,
2013-12-14 03:30:00,24.1,18.5,30.36,NNE,28,2.0,2.0,79,0.00,,,0.00,VWS V15.00,2013-12-14 08:30:00,
2013-12-14 03:31:00,24.4,18.8,30.34,NE,37,1.0,5.0,79,0.00,,,0.00,VWS V15.00,2013-12-14 08:31:00,
2013-12-14 03:36:00,24.4,18.8,30.36,NNE,26,3.0,4.0,79,0.00,,,0.00,VWS V15.00,2013-12-14 08:36:00,
2013-12-14 03:40:00,24.0,18.7,30.36,NE,36,2.0,5.0,80,0.00,,,0.00,VWS V15.00,2013-12-14 08:40:00,
2013-12-14 03:41:00,24.4,18.5,30.36,NNE,26,0.0,4.0,78,0.00,,,0.00,VWS V15.00,2013-12-14 08:41:00,
2013-12-14 03:46:00,24.3,18.4,30.36,NNE,26,0.0,1.0,78,0.00,,,0.00,VWS V15.00,2013-12-14 08:46:00,
2013-12-14 03:50:00,23.9,18.6,30.36,NE,36,1.0,3.0,80,0.00,,,0.00,VWS V15.00,2013-12-14 08:50:00,
2013-12-14 03:51:00,24.3,18.4,30.36,NNE,26,2.0,3.0,78,0.00,,,0.00,VWS V15.00,2013-12-14 08:51:00,
2013-12-14 03:56:00,24.3,18.4,30.36,NNE,28,1.0,4.0,78,0.00,,,0.00,VWS V15.00,2013-12-14 08:56:00,
2013-12-14 04:00:00,23.8,18.5,30.36,NE,36,0.0,3.0,80,0.00,,,0.00,VWS V15.00,2013-12-14 09:00:00,
2013-12-14 04:01:00,24.2,18.3,30.36,NNE,28,0.0,4.0,78,0.00,,,0.00,VWS V15.00,2013-12-14 09:01:00,
2013-12-14 04:06:00,24.2,18.3,30.37,NNE,28,0.0,1.0,78,0.00,,,0.00,VWS V15.00,2013-12-14 09:06:00,
2013-12-14 04:10:00,23.4,18.4,30.36,NE,36,0.0,3.0,81,0.00,,,0.00,VWS V15.00,2013-12-14 09:10:00,
2013-12-14 04:11:00,24.2,18.3,30.37,NNE,28,1.0,1.0,78,0.00,,,0.00,VWS V15.00,2013-12-14 09:11:00,
2013-12-14 04:16:00,24.2,18.3,30.37,NNE,28,0.0,1.0,78,0.00,,,0.00,VWS V15.00,2013-12-14 09:16:00,
2013-12-14 04:20:00,23.3,18.3,30.37,NE,36,1.0,3.0,81,0.00,,,0.00,VWS V15.00,2013-12-14 09:20:00,
2013-12-14 04:21:00,24.2,18.6,30.36,NNE,28,1.0,1.0,79,0.00,,,0.00,VWS V15.00,2013-12-14 09:21:00,
2013-12-14 04:26:00,24.2,18.6,30.36,NNE,28,0.0,1.0,79,0.00,,,0.00,VWS V15.00,2013-12-14 09:26:00,
2013-12-14 04:30:00,23.1,18.4,30.39,NE,36,2.0,3.0,82,0.00,,,0.00,VWS V15.00,2013-12-14 09:30:00,
2013-12-14 04:31:00,24.2,18.6,30.36,NNE,28,1.0,2.0,79,0.00,,,0.00,VWS V15.00,2013-12-14 09:31:00,
2013-12-14 04:36:00,24.1,18.8,30.36,NNE,28,1.0,3.0,80,0.00,,,0.00,VWS V15.00,2013-12-14 09:36:00,
2013-12-14 04:40:00,23.0,18.3,30.39,NE,36,1.0,3.0,82,0.00,,,0.00,VWS V15.00,2013-12-14 09:40:00,
2013-12-14 04:41:00,24.0,18.7,30.36,NE,36,1.0,5.0,80,0.00,,,0.00,VWS V15.00,2013-12-14 09:41:00,
2013-12-14 04:46:00,23.9,18.6,30.36,NE,36,0.0,3.0,80,0.00,,,0.00,VWS V15.00,2013-12-14 09:46:00,
2013-12-14 04:50:00,22.9,18.5,30.38,NE,36,2.0,4.0,83,0.00,,,0.00,VWS V15.00,2013-12-14 09:50:00,
2013-12-14 04:51:00,23.9,18.6,30.36,NE,36,0.0,3.0,80,0.00,,,0.00,VWS V15.00,2013-12-14 09:51:00,
2013-12-14 04:56:00,23.9,18.6,30.36,NE,36,0.0,2.0,80,0.00,,,0.00,VWS V15.00,2013-12-14 09:56:00,
2013-12-14 05:00:00,22.9,18.8,30.39,NE,36,1.0,3.0,84,0.00,,,0.00,VWS V15.00,2013-12-14 10:00:00,
2013-12-14 05:01:00,23.8,18.5,30.36,NE,36,0.0,3.0,80,0.00,,,0.00,VWS V15.00,2013-12-14 10:01:00,
2013-12-14 05:06:00,23.6,18.4,30.36,NE,36,1.0,2.0,80,0.00,,,0.00,VWS V15.00,2013-12-14 10:06:00,
2013-12-14 05:10:00,22.8,19.0,30.39,NE,36,0.0,2.0,85,0.00,,,0.00,VWS V15.00,2013-12-14 10:10:00,
2013-12-14 05:11:00,23.5,18.5,30.36,NE,36,0.0,3.0,81,0.00,,,0.00,VWS V15.00,2013-12-14 10:11:00,
2013-12-14 05:16:00,23.4,18.4,30.36,NE,36,0.0,3.0,81,0.00,,,0.00,VWS V15.00,2013-12-14 10:16:00,
2013-12-14 05:20:00,22.9,19.4,30.39,NE,36,0.0,1.0,86,0.00,,,0.00,VWS V15.00,2013-12-14 10:20:00,
2013-12-14 05:21:00,23.3,18.3,30.37,NE,36,0.0,3.0,81,0.00,,,0.00,VWS V15.00,2013-12-14 10:21:00,
2013-12-14 05:26:00,23.2,18.5,30.37,NE,36,0.0,2.0,82,0.00,,,0.00,VWS V15.00,2013-12-14 10:26:00,
2013-12-14 05:30:00,22.8,19.5,30.39,NE,37,2.0,3.0,87,0.00,,,0.00,VWS V15.00,2013-12-14 10:30:00,
2013-12-14 05:31:00,23.1,18.4,30.37,NE,36,0.0,2.0,82,0.00,,,0.00,VWS V15.00,2013-12-14 10:31:00,
2013-12-14 05:36:00,23.1,18.4,30.39,NE,36,0.0,3.0,82,0.00,,,0.00,VWS V15.00,2013-12-14 10:36:00,
2013-12-14 05:40:00,22.6,19.3,30.39,NE,41,0.0,4.0,87,0.00,,,0.00,VWS V15.00,2013-12-14 10:40:00,
2013-12-14 05:41:00,23.0,18.3,30.39,NE,36,1.0,3.0,82,0.00,,,0.00,VWS V15.00,2013-12-14 10:41:00,
2013-12-14 05:46:00,22.9,18.5,30.39,NE,36,0.0,2.0,83,0.00,,,0.00,VWS V15.00,2013-12-14 10:46:00,
2013-12-14 05:50:00,22.5,19.5,30.40,NE,50,0.0,4.0,88,0.00,,,0.00,VWS V15.00,2013-12-14 10:50:00,
2013-12-14 05:51:00,22.9,18.5,30.38,NE,36,2.0,4.0,83,0.00,,,0.00,VWS V15.00,2013-12-14 10:51:00,
2013-12-14 05:56:00,22.9,18.8,30.38,NE,36,0.0,2.0,84,0.00,,,0.00,VWS V15.00,2013-12-14 10:56:00,
2013-12-14 06:00:00,22.5,19.5,30.40,NE,46,0.0,3.0,88,0.00,,,0.00,VWS V15.00,2013-12-14 11:00:00,
2013-12-14 06:01:00,22.9,18.8,30.38,NE,36,0.0,3.0,84,0.00,,,0.00,VWS V15.00,2013-12-14 11:01:00,
2013-12-14 06:06:00,22.9,18.8,30.39,NE,36,0.0,1.0,84,0.00,,,0.00,VWS V15.00,2013-12-14 11:06:00,
2013-12-14 06:10:00,22.4,19.4,30.40,NE,46,0.0,3.0,88,0.00,,,0.00,VWS V15.00,2013-12-14 11:10:00,
2013-12-14 06:11:00,22.9,19.1,30.39,NE,36,1.0,1.0,85,0.00,,,0.00,VWS V15.00,2013-12-14 11:11:00,
2013-12-14 06:16:00,22.8,19.0,30.39,NE,36,0.0,0.0,85,0.00,,,0.00,VWS V15.00,2013-12-14 11:16:00,
2013-12-14 06:20:00,22.3,19.6,30.41,ENE,69,1.0,3.0,89,0.00,,,0.00,VWS V15.00,2013-12-14 11:20:00,
2013-12-14 06:21:00,22.8,19.2,30.39,NE,36,0.0,1.0,86,0.00,,,0.00,VWS V15.00,2013-12-14 11:21:00,
2013-12-14 06:26:00,22.8,19.2,30.39,NE,37,2.0,2.0,86,0.00,,,0.00,VWS V15.00,2013-12-14 11:26:00,
2013-12-14 06:30:00,22.2,19.5,30.41,ENE,69,0.0,4.0,89,0.00,,,0.00,VWS V15.00,2013-12-14 11:30:00,
2013-12-14 06:31:00,22.8,19.5,30.39,NE,37,2.0,3.0,87,0.00,,,0.00,VWS V15.00,2013-12-14 11:31:00,
2013-12-14 06:36:00,22.8,19.5,30.39,NE,37,1.0,2.0,87,0.00,,,0.00,VWS V15.00,2013-12-14 11:36:00,
2013-12-14 06:40:00,22.1,19.4,30.41,East,79,3.0,8.0,89,0.00,,,0.00,VWS V15.00,2013-12-14 11:40:00,
2013-12-14 06:41:00,22.7,19.4,30.39,NE,40,0.0,4.0,87,0.00,,,0.00,VWS V15.00,2013-12-14 11:41:00,
2013-12-14 06:46:00,22.6,19.6,30.39,NE,50,0.0,4.0,88,0.00,,,0.00,VWS V15.00,2013-12-14 11:46:00,
2013-12-14 06:50:00,22.0,19.3,30.42,East,79,1.0,6.0,89,0.00,,,0.00,VWS V15.00,2013-12-14 11:50:00,
2013-12-14 06:51:00,22.5,19.5,30.40,NE,50,0.0,4.0,88,0.00,,,0.00,VWS V15.00,2013-12-14 11:51:00,
2013-12-14 06:56:00,22.5,19.5,30.40,NE,50,0.0,2.0,88,0.00,,,0.00,VWS V15.00,2013-12-14 11:56:00,
2013-12-14 07:00:00,22.0,19.3,30.42,ENE,57,2.0,4.0,89,0.00,,,0.00,VWS V15.00,2013-12-14 12:00:00,
2013-12-14 07:01:00,22.5,19.5,30.40,NE,46,2.0,3.0,88,0.00,,,0.00,VWS V15.00,2013-12-14 12:01:00,
2013-12-14 07:06:00,22.5,19.5,30.40,NE,46,0.0,2.0,88,0.00,,,0.00,VWS V15.00,2013-12-14 12:06:00,
2013-12-14 07:10:00,21.9,19.2,30.42,SSE,153,2.0,7.0,89,0.00,,,0.00,VWS V15.00,2013-12-14 12:10:00,
2013-12-14 07:11:00,22.4,19.4,30.40,NE,46,0.0,3.0,88,0.00,,,0.00,VWS V15.00,2013-12-14 12:11:00,
2013-12-14 07:16:00,22.4,19.4,30.40,NE,46,2.0,3.0,88,0.00,,,0.00,VWS V15.00,2013-12-14 12:16:00,
2013-12-14 07:20:00,21.8,19.1,30.44,SE,142,0.0,4.0,89,0.00,,,0.00,VWS V15.00,2013-12-14 12:20:00,
2013-12-14 07:21:00,22.3,19.3,30.41,ENE,69,0.0,3.0,88,0.00,,,0.00,VWS V15.00,2013-12-14 12:21:00,
2013-12-14 07:26:00,22.2,19.5,30.41,ENE,69,2.0,4.0,89,0.00,,,0.00,VWS V15.00,2013-12-14 12:26:00,
2013-12-14 07:30:00,21.7,19.0,30.43,ESE,107,1.0,7.0,89,0.00,,,0.00,VWS V15.00,2013-12-14 12:30:00,
2013-12-14 07:31:00,22.2,19.5,30.41,ENE,69,0.0,4.0,89,0.00,,,0.00,VWS V15.00,2013-12-14 12:31:00,
2013-12-14 07:36:00,22.2,19.5,30.41,ENE,71,1.0,4.0,89,0.00,,,0.00,VWS V15.00,2013-12-14 12:36:00,
2013-12-14 07:40:00,21.6,18.9,30.43,SE,128,2.0,5.0,89,0.00,,,0.00,VWS V15.00,2013-12-14 12:40:00,
2013-12-14 07:41:00,22.1,19.4,30.41,SE,135,2.0,8.0,89,0.00,,,0.00,VWS V15.00,2013-12-14 12:41:00,
2013-12-14 07:46:00,22.1,19.4,30.41,NE,40,1.0,6.0,89,0.00,,,0.00,VWS V15.00,2013-12-14 12:46:00,
2013-12-14 07:50:00,21.5,18.8,30.44,East,85,5.0,7.0,89,0.00,,,0.00,VWS V15.00,2013-12-14 12:50:00,
2013-12-14 07:51:00,22.0,19.3,30.42,East,79,0.0,6.0,89,0.00,,,0.00,VWS V15.00,2013-12-14 12:51:00,
2013-12-14 07:56:00,22.0,19.3,30.42,ENE,78,0.0,3.0,89,0.00,,,0.00,VWS V15.00,2013-12-14 12:56:00,
2013-12-14 08:00:00,21.3,18.3,30.44,East,99,2.0,7.0,88,0.00,,,0.00,VWS V15.00,2013-12-14 13:00:00,
2013-12-14 08:01:00,22.0,19.3,30.42,ENE,57,0.0,4.0,89,0.00,,,0.00,VWS V15.00,2013-12-14 13:01:00,
2013-12-14 08:06:00,22.0,19.3,30.42,ESE,105,0.0,3.0,89,0.00,,,0.00,VWS V15.00,2013-12-14 13:06:00,
2013-12-14 08:10:00,21.4,18.4,30.44,East,98,2.0,5.0,88,0.00,,,0.00,VWS V15.00,2013-12-14 13:10:00,
2013-12-14 08:11:00,21.9,19.2,30.42,SSE,159,1.0,7.0,89,0.00,,,0.00,VWS V15.00,2013-12-14 13:11:00,
2013-12-14 08:16:00,21.9,19.2,30.42,SE,144,2.0,3.0,89,0.00,,,0.00,VWS V15.00,2013-12-14 13:16:00,
2013-12-14 08:20:00,21.4,18.4,30.45,NE,47,0.0,4.0,88,0.00,,,0.00,VWS V15.00,2013-12-14 13:20:00,
2013-12-14 08:21:00,21.8,19.1,30.44,SE,142,1.0,4.0,89,0.00,,,0.00,VWS V15.00,2013-12-14 13:21:00,
2013-12-14 08:26:00,21.8,19.1,30.44,ESE,110,3.0,3.0,89,0.00,,,0.00,VWS V15.00,2013-12-14 13:26:00,
2013-12-14 08:30:00,21.5,18.5,30.45,ENE,57,2.0,3.0,88,0.00,,,0.00,VWS V15.00,2013-12-14 13:30:00,
2013-12-14 08:31:00,21.7,19.0,30.44,SE,144,3.0,7.0,89,0.00,,,0.00,VWS V15.00,2013-12-14 13:31:00,
2013-12-14 08:36:00,21.7,19.0,30.43,East,82,0.0,3.0,89,0.00,,,0.00,VWS V15.00,2013-12-14 13:36:00,
2013-12-14 08:40:00,21.3,18.3,30.45,ENE,64,4.0,7.0,88,0.00,,,0.00,VWS V15.00,2013-12-14 13:40:00,
2013-12-14 08:41:00,21.6,18.9,30.43,ENE,58,2.0,5.0,89,0.00,,,0.00,VWS V15.00,2013-12-14 13:41:00,
2013-12-14 08:46:00,21.6,18.9,30.43,ENE,61,4.0,7.0,89,0.00,,,0.00,VWS V15.00,2013-12-14 13:46:00,
2013-12-14 08:50:00,21.3,18.3,30.45,NE,49,4.0,8.0,88,0.00,,,0.00,VWS V15.00,2013-12-14 13:50:00,
2013-12-14 08:51:00,21.5,18.8,30.44,East,87,0.0,7.0,89,0.00,,,0.00,VWS V15.00,2013-12-14 13:51:00,
2013-12-14 08:56:00,21.4,18.4,30.44,ENE,59,4.0,7.0,88,0.00,,,0.00,VWS V15.00,2013-12-14 13:56:00,
2013-12-14 09:00:00,21.3,18.3,30.47,NE,49,2.0,4.0,88,0.00,,,0.00,VWS V15.00,2013-12-14 14:00:00,
2013-12-14 09:01:00,21.3,18.3,30.44,East,98,0.0,7.0,88,0.00,,,0.00,VWS V15.00,2013-12-14 14:01:00,
2013-12-14 09:06:00,21.3,18.3,30.44,East,98,0.0,3.0,88,0.00,,,0.00,VWS V15.00,2013-12-14 14:06:00,
2013-12-14 09:10:00,21.5,18.8,30.47,ESE,117,4.0,6.0,89,0.00,,,0.00,VWS V15.00,2013-12-14 14:10:00,
2013-12-14 09:11:00,21.4,18.4,30.44,East,98,5.0,5.0,88,0.00,,,0.00,VWS V15.00,2013-12-14 14:11:00,
2013-12-14 09:16:00,21.4,18.4,30.44,ENE,65,2.0,4.0,88,0.00,,,0.00,VWS V15.00,2013-12-14 14:16:00,
2013-12-14 09:20:00,21.6,18.9,30.45,ENE,64,5.0,7.0,89,0.00,,,0.00,VWS V15.00,2013-12-14 14:20:00,
2013-12-14 09:21:00,21.4,18.4,30.45,NE,47,2.0,4.0,88,0.00,,,0.00,VWS V15.00,2013-12-14 14:21:00,
2013-12-14 09:26:00,21.4,18.4,30.45,NE,45,0.0,3.0,88,0.00,,,0.00,VWS V15.00,2013-12-14 14:26:00,
2013-12-14 09:30:00,21.7,18.7,30.46,East,99,6.0,7.0,88,0.00,,,0.00,VWS V15.00,2013-12-14 14:30:00,
2013-12-14 09:31:00,21.5,18.5,30.45,NE,56,1.0,3.0,88,0.00,,,0.00,VWS V15.00,2013-12-14 14:31:00,
2013-12-14 09:36:00,21.4,18.4,30.45,ENE,67,2.0,7.0,88,0.00,,,0.00,VWS V15.00,2013-12-14 14:36:00,
2013-12-14 09:40:00,21.6,18.6,30.46,ENE,70,2.0,7.0,88,0.00,,,0.00,VWS V15.00,2013-12-14 14:40:00,
2013-12-14 09:41:00,21.3,18.3,30.45,ENE,69,2.0,7.0,88,0.00,,,0.00,VWS V15.00,2013-12-14 14:41:00,
2013-12-14 09:46:00,21.3,18.3,30.45,East,79,5.0,7.0,88,0.00,,,0.00,VWS V15.00,2013-12-14 14:46:00,
2013-12-14 09:50:00,21.6,18.6,30.45,ENE,57,4.0,5.0,88,0.00,,,0.00,VWS V15.00,2013-12-14 14:50:00,
2013-12-14 09:51:00,21.3,18.3,30.45,East,86,5.0,8.0,88,0.00,,,0.00,VWS V15.00,2013-12-14 14:51:00,
2013-12-14 09:56:00,21.3,18.3,30.45,NE,47,1.0,4.0,88,0.00,,,0.00,VWS V15.00,2013-12-14 14:56:00,
2013-12-14 10:00:00,21.6,18.9,30.44,ESE,113,5.0,9.0,89,0.00,,,0.00,VWS V15.00,2013-12-14 15:00:00,
2013-12-14 10:01:00,21.3,18.3,30.45,NE,48,2.0,4.0,88,0.00,,,0.00,VWS V15.00,2013-12-14 15:01:00,
2013-12-14 10:06:00,21.3,18.3,30.47,ESE,107,3.0,6.0,88,0.00,,,0.00,VWS V15.00,2013-12-14 15:06:00,
2013-12-14 10:10:00,21.5,18.8,30.44,ENE,71,3.0,10.0,89,0.00,,,0.00,VWS V15.00,2013-12-14 15:10:00,
2013-12-14 10:11:00,21.4,18.7,30.47,SE,126,0.0,6.0,89,0.00,,,0.00,VWS V15.00,2013-12-14 15:11:00,
2013-12-14 10:16:00,21.5,18.8,30.47,NE,55,2.0,5.0,89,0.00,,,0.00,VWS V15.00,2013-12-14 15:16:00,
2013-12-14 10:20:00,21.6,18.9,30.45,NE,39,4.0,6.0,89,0.00,,,0.00,VWS V15.00,2013-12-14 15:20:00,
2013-12-14 10:25:00,21.6,18.9,30.45,NW,306,1.0,6.0,89,0.00,,,0.00,VWS V15.00,2013-12-14 15:25:00,
2013-12-14 10:30:00,21.7,18.7,30.45,ENE,66,5.0,7.0,88,0.00,,,0.00,VWS V15.00,2013-12-14 15:30:00,
2013-12-14 10:35:00,21.6,18.6,30.46,ENE,71,2.0,7.0,88,0.00,,,0.00,VWS V15.00,2013-12-14 15:35:00,
2013-12-14 10:40:00,21.6,18.6,30.46,ENE,68,3.0,7.0,88,0.00,,,0.00,VWS V15.00,2013-12-14 15:40:00,
2013-12-14 10:45:00,21.6,18.6,30.46,NE,48,1.0,4.0,88,0.00,,,0.00,VWS V15.00,2013-12-14 15:45:00,
2013-12-14 10:50:00,21.7,18.7,30.45,NE,55,3.0,5.0,88,0.00,,,0.00,VWS V15.00,2013-12-14 15:50:00,
2013-12-14 10:55:00,21.6,18.9,30.45,ESE,117,2.0,8.0,89,0.00,,,0.00,VWS V15.00,2013-12-14 15:55:00,
2013-12-14 11:00:00,21.6,18.9,30.45,East,80,1.0,8.0,89,0.00,,,0.00,VWS V15.00,2013-12-14 16:00:00,
2013-12-14 11:05:00,21.6,18.9,30.44,ENE,72,5.0,10.0,89,0.00,,,0.00,VWS V15.00,2013-12-14 16:05:00,
2013-12-14 11:10:00,21.5,18.8,30.44,ENE,68,2.0,10.0,89,0.00,,,0.00,VWS V15.00,2013-12-14 16:10:00,
2013-12-14 11:15:00,21.7,19.0,30.44,East,80,2.0,6.0,89,0.00,,,0.00,VWS V15.00,2013-12-14 16:15:00,
2013-12-14 11:20:00,21.8,19.1,30.42,ENE,77,3.0,6.0,89,0.00,,,0.00,VWS V15.00,2013-12-14 16:20:00,
2013-12-14 11:25:00,21.9,19.2,30.42,SSE,156,0.0,7.0,89,0.00,,,0.00,VWS V15.00,2013-12-14 16:25:00,
2013-12-14 11:30:00,21.9,19.2,30.42,ENE,64,3.0,8.0,89,0.00,,,0.00,VWS V15.00,2013-12-14 16:30:00,
2013-12-14 11:35:00,21.9,19.2,30.41,NE,53,1.0,7.0,89,0.00,,,0.00,VWS V15.00,2013-12-14 16:35:00,
2013-12-14 11:40:00,22.0,19.3,30.41,NE,51,4.0,7.0,89,0.00,,,0.00,VWS V15.00,2013-12-14 16:40:00,
2013-12-14 11:45:00,22.2,19.5,30.41,ENE,66,5.0,5.0,89,0.00,,,0.00,VWS V15.00,2013-12-14 16:45:00,
2013-12-14 11:50:00,22.2,19.5,30.39,East,88,0.0,7.0,89,0.00,,,0.00,VWS V15.00,2013-12-14 16:50:00,
2013-12-14 11:55:00,22.2,19.5,30.39,East,86,5.0,8.0,89,0.00,,,0.00,VWS V15.00,2013-12-14 16:55:00,
2013-12-14 12:00:00,22.2,19.5,30.39,ENE,59,2.0,8.0,89,0.00,,,0.00,VWS V15.00,2013-12-14 17:00:00,
2013-12-14 12:05:00,22.2,19.5,30.39,East,97,8.0,8.0,89,0.00,,,0.00,VWS V15.00,2013-12-14 17:05:00,
2013-12-14 12:10:00,22.0,19.3,30.39,East,84,3.0,8.0,89,0.00,,,0.00,VWS V15.00,2013-12-14 17:10:00,
2013-12-14 12:15:00,22.0,19.3,30.39,ESE,106,4.0,7.0,89,0.00,,,0.00,VWS V15.00,2013-12-14 17:15:00,
2013-12-14 12:20:00,21.9,19.2,30.38,North,360,6.0,8.0,89,0.00,,,0.00,VWS V15.00,2013-12-14 17:20:00,
2013-12-14 12:25:00,22.0,19.3,30.38,NE,36,4.0,4.0,89,0.00,,,0.00,VWS V15.00,2013-12-14 17:25:00,
2013-12-14 12:30:00,22.0,19.5,30.38,NE,47,3.0,7.0,90,0.00,,,0.00,VWS V15.00,2013-12-14 17:30:00,
2013-12-14 12:35:00,22.1,19.6,30.36,NE,53,1.0,3.0,90,0.00,,,0.00,VWS V15.00,2013-12-14 17:35:00,
2013-12-14 12:40:00,22.3,19.8,30.36,ENE,63,4.0,5.0,90,0.00,,,0.00,VWS V15.00,2013-12-14 17:40:00,
2013-12-14 12:45:00,22.3,19.8,30.36,ENE,65,0.0,3.0,90,0.00,,,0.00,VWS V15.00,2013-12-14 17:45:00,
2013-12-14 12:50:00,22.3,19.8,30.36,ENE,62,3.0,5.0,90,0.00,,,0.00,VWS V15.00,2013-12-14 17:50:00,
2013-12-14 12:55:00,22.2,19.7,30.36,ENE,78,3.0,4.0,90,0.00,,,0.00,VWS V15.00,2013-12-14 17:55:00,
2013-12-14 13:00:00,21.5,19.0,30.33,ENE,74,4.0,7.0,90,0.00,,,0.00,VWS V15.00,2013-12-14 18:00:00,
2013-12-14 13:01:00,22.1,19.6,30.36,SE,130,5.0,8.0,90,0.00,,,0.00,VWS V15.00,2013-12-14 18:01:00,
2013-12-14 13:06:00,22.1,19.6,30.35,East,99,1.0,8.0,90,0.00,,,0.00,VWS V15.00,2013-12-14 18:06:00,
2013-12-14 13:10:00,21.2,18.7,30.33,East,99,5.0,7.0,90,0.00,,,0.00,VWS V15.00,2013-12-14 18:10:00,
2013-12-14 13:11:00,22.1,19.6,30.35,NE,40,3.0,8.0,90,0.00,,,0.00,VWS V15.00,2013-12-14 18:11:00,
2013-12-14 13:16:00,22.1,19.6,30.35,East,97,2.0,6.0,90,0.00,,,0.00,VWS V15.00,2013-12-14 18:16:00,
2013-12-14 13:20:00,21.1,18.6,30.31,East,101,3.0,9.0,90,0.00,,,0.00,VWS V15.00,2013-12-14 18:20:00,
2013-12-14 13:21:00,22.1,19.6,30.34,East,101,3.0,7.0,90,0.00,,,0.00,VWS V15.00,2013-12-14 18:21:00,
2013-12-14 13:26:00,22.1,19.6,30.34,ENE,76,3.0,7.0,90,0.00,,,0.00,VWS V15.00,2013-12-14 18:26:00,
2013-12-14 13:30:00,20.9,18.4,30.30,East,97,3.0,7.0,90,0.01,,,0.01,VWS V15.00,2013-12-14 18:30:00,
2013-12-14 13:31:00,22.0,19.5,30.34,ENE,69,4.0,9.0,90,0.00,,,0.00,VWS V15.00,2013-12-14 18:31:00,
2013-12-14 13:36:00,21.9,19.4,30.33,ENE,78,4.0,9.0,90,0.00,,,0.00,VWS V15.00,2013-12-14 18:36:00,
2013-12-14 13:40:00,21.7,19.2,30.33,ESE,108,3.0,9.0,90,0.00,,,0.00,VWS V15.00,2013-12-14 18:40:00,
2013-12-14 13:45:00,21.6,19.1,30.33,ESE,117,3.0,10.0,90,0.00,,,0.00,VWS V15.00,2013-12-14 18:45:00,
2013-12-14 13:50:00,21.6,19.1,30.32,SE,136,5.0,10.0,90,0.00,,,0.00,VWS V15.00,2013-12-14 18:50:00,
2013-12-14 13:55:00,21.6,19.1,30.32,NE,37,4.0,7.0,90,0.00,,,0.00,VWS V15.00,2013-12-14 18:55:00,
2013-12-14 14:00:00,21.5,19.0,30.32,ENE,60,2.0,7.0,90,0.00,,,0.00,VWS V15.00,2013-12-14 19:00:00,
2013-12-14 14:06:00,21.4,18.9,30.33,ENE,67,4.0,7.0,90,0.00,,,0.00,VWS V15.00,2013-12-14 19:06:00,
2013-12-14 14:10:00,20.2,18.0,30.29,ENE,71,11.0,11.0,91,0.01,,,0.01,VWS V15.00,2013-12-14 19:10:00,
2013-12-14 14:11:00,21.3,18.8,30.33,NE,45,7.0,7.0,90,0.00,,,0.00,VWS V15.00,2013-12-14 19:11:00,
2013-12-14 14:16:00,21.2,18.7,30.33,ESE,108,2.0,9.0,90,0.00,,,0.00,VWS V15.00,2013-12-14 19:16:00,
2013-12-14 14:20:00,19.8,17.6,30.28,East,82,5.0,11.0,91,0.01,,,0.01,VWS V15.00,2013-12-14 19:20:00,
2013-12-14 14:21:00,21.1,18.6,30.31,NE,53,1.0,9.0,90,0.00,,,0.00,VWS V15.00,2013-12-14 19:21:00,
2013-12-14 14:26:00,21.0,18.5,30.31,ENE,63,5.0,7.0,90,0.00,,,0.00,VWS V15.00,2013-12-14 19:26:00,
2013-12-14 14:30:00,19.7,17.5,30.28,ENE,72,4.0,11.0,91,0.01,,,0.01,VWS V15.00,2013-12-14 19:30:00,
2013-12-14 14:31:00,20.9,18.4,30.31,ENE,65,3.0,7.0,90,0.00,,,0.00,VWS V15.00,2013-12-14 19:31:00,
2013-12-14 14:36:00,20.9,18.7,30.30,ENE,71,3.0,6.0,91,0.01,,,0.01,VWS V15.00,2013-12-14 19:36:00,
2013-12-14 14:40:00,19.6,17.4,30.28,ENE,74,3.0,9.0,91,0.00,,,0.01,VWS V15.00,2013-12-14 19:40:00,
2013-12-14 14:41:00,20.9,18.4,30.30,ENE,70,4.0,6.0,90,0.01,,,0.01,VWS V15.00,2013-12-14 19:41:00,
2013-12-14 14:46:00,20.9,18.7,30.30,SE,127,1.0,9.0,91,0.01,,,0.01,VWS V15.00,2013-12-14 19:46:00,
2013-12-14 14:50:00,19.6,17.4,30.28,East,93,3.0,11.0,91,0.00,,,0.01,VWS V15.00,2013-12-14 19:50:00,
2013-12-14 14:51:00,20.8,18.6,30.30,East,80,1.0,9.0,91,0.01,,,0.01,VWS V15.00,2013-12-14 19:51:00,
2013-12-14 14:56:00,20.7,18.5,30.30,ESE,122,9.0,9.0,91,0.01,,,0.01,VWS V15.00,2013-12-14 19:56:00,
2013-12-14 15:00:00,19.4,17.2,30.27,ESE,109,4.0,11.0,91,0.00,,,0.01,VWS V15.00,2013-12-14 20:00:00,
2013-12-14 15:01:00,20.4,18.2,30.30,ESE,110,4.0,10.0,91,0.01,,,0.01,VWS V15.00,2013-12-14 20:01:00,
2013-12-14 15:06:00,20.3,17.8,30.29,East,92,5.0,8.0,90,0.01,,,0.01,VWS V15.00,2013-12-14 20:06:00,
2013-12-14 15:10:00,19.3,17.1,30.27,ENE,66,3.0,11.0,91,0.00,,,0.01,VWS V15.00,2013-12-14 20:10:00,
2013-12-14 15:11:00,20.2,18.0,30.29,ENE,59,2.0,8.0,91,0.01,,,0.01,VWS V15.00,2013-12-14 20:11:00,
2013-12-14 15:16:00,20.0,17.8,30.29,SE,146,4.0,11.0,91,0.01,,,0.01,VWS V15.00,2013-12-14 20:16:00,
2013-12-14 15:20:00,19.8,17.6,30.28,NE,55,2.0,11.0,91,0.01,,,0.01,VWS V15.00,2013-12-14 20:20:00,
2013-12-14 15:25:00,19.8,17.6,30.28,NE,53,3.0,11.0,91,0.01,,,0.01,VWS V15.00,2013-12-14 20:25:00,
2013-12-14 15:30:00,19.7,17.5,30.28,East,96,3.0,11.0,91,0.01,,,0.01,VWS V15.00,2013-12-14 20:30:00,
2013-12-14 15:35:00,19.7,17.5,30.28,SE,124,4.0,9.0,91,0.00,,,0.01,VWS V15.00,2013-12-14 20:35:00,
2013-12-14 15:40:00,19.6,17.4,30.28,East,97,5.0,9.0,91,0.00,,,0.01,VWS V15.00,2013-12-14 20:40:00,
2013-12-14 15:45:00,19.6,17.4,30.28,North,5,1.0,7.0,91,0.00,,,0.01,VWS V15.00,2013-12-14 20:45:00,
2013-12-14 15:50:00,19.6,17.4,30.28,East,94,6.0,11.0,91,0.00,,,0.01,VWS V15.00,2013-12-14 20:50:00,
2013-12-14 15:55:00,19.5,17.3,30.28,ENE,64,5.0,8.0,91,0.00,,,0.01,VWS V15.00,2013-12-14 20:55:00,
2013-12-14 16:00:00,19.5,17.3,30.28,NNE,23,5.0,8.0,91,0.00,,,0.01,VWS V15.00,2013-12-14 21:00:00,
2013-12-14 16:05:00,19.3,17.1,30.27,ENE,76,5.0,11.0,91,0.00,,,0.01,VWS V15.00,2013-12-14 21:05:00,
2013-12-14 16:10:00,19.3,17.1,30.27,ENE,63,4.0,11.0,91,0.00,,,0.01,VWS V15.00,2013-12-14 21:10:00,
2013-12-14 16:15:00,19.3,17.1,30.27,East,80,2.0,5.0,91,0.00,,,0.01,VWS V15.00,2013-12-14 21:15:00,
2013-12-14 16:20:00,19.2,17.0,30.27,NNE,22,9.0,9.0,91,0.00,,,0.01,VWS V15.00,2013-12-14 21:20:00,
2013-12-14 16:25:00,19.1,16.9,30.27,SE,138,1.0,7.0,91,0.00,,,0.01,VWS V15.00,2013-12-14 21:25:00,
2013-12-14 16:30:00,19.1,16.9,30.27,NNE,23,3.0,7.0,91,0.01,,,0.02,VWS V15.00,2013-12-14 21:30:00,
2013-12-14 16:35:00,19.0,17.1,30.25,ESE,103,5.0,8.0,92,0.01,,,0.02,VWS V15.00,2013-12-14 21:35:00,
2013-12-14 16:40:00,18.9,17.0,30.25,ENE,75,5.0,9.0,92,0.01,,,0.02,VWS V15.00,2013-12-14 21:40:00,
2013-12-14 16:45:00,18.8,16.6,30.25,ESE,116,2.0,5.0,91,0.01,,,0.02,VWS V15.00,2013-12-14 21:45:00,
2013-12-14 16:50:00,18.8,16.6,30.23,East,86,5.0,7.0,91,0.02,,,0.03,VWS V15.00,2013-12-14 21:50:00,
2013-12-14 16:55:00,18.8,16.9,30.23,East,80,3.0,10.0,92,0.02,,,0.03,VWS V15.00,2013-12-14 21:55:00,
2013-12-14 17:00:00,18.8,16.9,30.23,ESE,115,5.0,10.0,92,0.02,,,0.03,VWS V15.00,2013-12-14 22:00:00,
2013-12-14 17:05:00,18.8,16.9,30.22,NE,42,5.0,10.0,92,0.02,,,0.03,VWS V15.00,2013-12-14 22:05:00,
2013-12-14 17:10:00,18.6,16.4,30.22,SSE,149,2.0,12.0,91,0.02,,,0.03,VWS V15.00,2013-12-14 22:10:00,
2013-12-14 17:15:00,18.5,16.6,30.22,East,101,6.0,8.0,92,0.02,,,0.03,VWS V15.00,2013-12-14 22:15:00,
2013-12-14 17:20:00,18.4,16.5,30.22,NE,55,9.0,11.0,92,0.02,,,0.03,VWS V15.00,2013-12-14 22:20:00,
2013-12-14 17:25:00,18.3,16.4,30.22,ENE,69,3.0,13.0,92,0.02,,,0.03,VWS V15.00,2013-12-14 22:25:00,
2013-12-14 17:30:00,18.2,16.0,30.22,East,80,6.0,14.0,91,0.02,,,0.03,VWS V15.00,2013-12-14 22:30:00,
2013-12-14 17:35:00,18.2,16.0,30.22,East,80,5.0,9.0,91,0.01,,,0.03,VWS V15.00,2013-12-14 22:35:00,
2013-12-14 17:40:00,18.1,15.9,30.22,East,89,6.0,10.0,91,0.01,,,0.03,VWS V15.00,2013-12-14 22:40:00,
2013-12-14 17:45:00,18.0,15.8,30.22,East,82,5.0,9.0,91,0.01,,,0.03,VWS V15.00,2013-12-14 22:45:00,
2013-12-14 17:50:00,18.0,15.8,30.20,ESE,107,7.0,10.0,91,0.01,,,0.03,VWS V15.00,2013-12-14 22:50:00,
2013-12-14 17:55:00,18.0,16.1,30.20,ENE,61,7.0,10.0,92,0.00,,,0.03,VWS V15.00,2013-12-14 22:55:00,
2013-12-14 18:00:00,18.0,16.1,30.20,SSE,148,4.0,10.0,92,0.00,,,0.03,VWS V15.00,2013-12-14 23:00:00,
2013-12-14 18:05:00,18.0,16.1,30.19,NE,53,6.0,10.0,92,0.00,,,0.03,VWS V15.00,2013-12-14 23:05:00,
2013-12-14 18:10:00,17.9,16.0,30.19,NE,46,7.0,13.0,92,0.00,,,0.03,VWS V15.00,2013-12-14 23:10:00,
2013-12-14 18:15:00,17.9,16.0,30.19,South,174,1.0,8.0,92,0.00,,,0.03,VWS V15.00,2013-12-14 23:15:00,
2013-12-14 18:20:00,17.8,15.6,30.19,ESE,119,10.0,10.0,91,0.00,,,0.03,VWS V15.00,2013-12-14 23:20:00,
2013-12-14 18:25:00,17.7,15.5,30.19,NE,51,4.0,9.0,91,0.00,,,0.03,VWS V15.00,2013-12-14 23:25:00,
2013-12-14 18:30:00,17.7,15.8,30.19,NE,41,2.0,9.0,92,0.00,,,0.03,VWS V15.00,2013-12-14 23:30:00,
2013-12-14 18:35:00,17.6,15.7,30.18,East,80,1.0,13.0,92,0.00,,,0.03,VWS V15.00,2013-12-14 23:35:00,
2013-12-14 18:40:00,17.6,15.7,30.18,East,82,6.0,13.0,92,0.00,,,0.03,VWS V15.00,2013-12-14 23:40:00,
2013-12-14 18:45:00,17.5,15.6,30.18,East,79,2.0,8.0,92,0.00,,,0.03,VWS V15.00,2013-12-14 23:45:00,
2013-12-14 18:50:00,17.5,15.6,30.17,ESE,112,4.0,8.0,92,0.00,,,0.03,VWS V15.00,2013-12-14 23:50:00,
2013-12-14 18:55:00,17.5,15.6,30.17,East,90,3.0,8.0,92,0.00,,,0.03,VWS V15.00,2013-12-14 23:55:00,
2013-12-14 19:00:00,17.5,15.6,30.17,East,86,5.0,8.0,92,0.00,,,0.03,VWS V15.00,2013-12-15 00:00:00,
2013-12-14 19:05:00,17.4,15.5,30.16,East,97,7.0,8.0,92,0.00,,,0.03,VWS V15.00,2013-12-15 00:05:00,
2013-12-14 19:10:00,17.4,15.5,30.16,ESE,109,3.0,9.0,92,0.00,,,0.03,VWS V15.00,2013-12-15 00:10:00,
2013-12-14 19:15:00,17.4,15.5,30.16,NE,34,15.0,15.0,92,0.00,,,0.03,VWS V15.00,2013-12-15 00:15:00,
2013-12-14 19:20:00,17.4,15.5,30.14,East,98,3.0,15.0,92,0.00,,,0.03,VWS V15.00,2013-12-15 00:20:00,
2013-12-14 19:25:00,17.4,15.5,30.14,NE,54,9.0,10.0,92,0.00,,,0.03,VWS V15.00,2013-12-15 00:25:00,
2013-12-14 19:30:00,17.5,15.6,30.14,NE,56,3.0,12.0,92,0.00,,,0.03,VWS V15.00,2013-12-15 00:30:00,
2013-12-14 19:35:00,17.5,15.6,30.13,East,84,3.0,10.0,92,0.00,,,0.03,VWS V15.00,2013-12-15 00:35:00,
2013-12-14 19:40:00,17.6,15.7,30.13,ESE,102,5.0,10.0,92,0.00,,,0.03,VWS V15.00,2013-12-15 00:40:00,
2013-12-14 19:45:00,17.7,15.8,30.13,ESE,117,3.0,7.0,92,0.01,,,0.04,VWS V15.00,2013-12-15 00:45:00,
2013-12-14 19:50:00,17.9,16.0,30.12,East,87,5.0,8.0,92,0.01,,,0.04,VWS V15.00,2013-12-15 00:50:00,
2013-12-14 19:55:00,18.0,16.1,30.12,NE,44,5.0,9.0,92,0.02,,,0.05,VWS V15.00,2013-12-15 00:55:00,
2013-12-14 20:00:00,18.0,16.1,30.12,ENE,78,3.0,9.0,92,0.03,,,0.06,VWS V15.00,2013-12-15 01:00:00,
2013-12-14 20:05:00,18.0,16.1,30.10,East,101,6.0,10.0,92,0.03,,,0.06,VWS V15.00,2013-12-15 01:05:00,
2013-12-14 20:10:00,18.0,16.1,30.10,ENE,73,11.0,11.0,92,0.04,,,0.07,VWS V15.00,2013-12-15 01:10:00,
2013-12-14 20:15:00,18.1,16.2,30.10,ENE,72,5.0,11.0,92,0.05,,,0.08,VWS V15.00,2013-12-15 01:15:00,
2013-12-14 20:20:00,18.2,16.3,30.07,NE,48,4.0,11.0,92,0.05,,,0.08,VWS V15.00,2013-12-15 01:20:00,
2013-12-14 20:25:00,18.3,16.4,30.07,East,92,8.0,9.0,92,0.06,,,0.09,VWS V15.00,2013-12-15 01:25:00,
2013-12-14 20:30:00,18.5,16.6,30.07,SE,146,8.0,12.0,92,0.06,,,0.09,VWS V15.00,2013-12-15 01:30:00,
2013-12-14 20:35:00,18.6,16.7,30.06,East,82,3.0,10.0,92,0.06,,,0.09,VWS V15.00,2013-12-15 01:35:00,
2013-12-14 20:40:00,18.8,16.9,30.06,NE,52,5.0,10.0,92,0.07,,,0.10,VWS V15.00,2013-12-15 01:40:00,
2013-12-14 20:45:00,18.9,17.0,30.06,NE,46,4.0,11.0,92,0.06,,,0.10,VWS V15.00,2013-12-15 01:45:00,
2013-12-14 20:50:00,19.1,17.4,30.05,East,82,2.0,11.0,93,0.07,,,0.11,VWS V15.00,2013-12-15 01:50:00,
2013-12-14 20:55:00,19.3,17.6,30.05,ENE,65,4.0,8.0,93,0.06,,,0.11,VWS V15.00,2013-12-15 01:55:00,
2013-12-14 21:00:00,19.4,17.7,30.05,NE,54,5.0,8.0,93,0.06,,,0.11,VWS V15.00,2013-12-15 02:00:00,
2013-12-14 21:05:00,19.6,17.9,30.03,NE,40,2.0,7.0,93,0.05,,,0.11,VWS V15.00,2013-12-15 02:05:00,
2013-12-14 21:10:00,19.7,18.0,30.03,ENE,58,3.0,11.0,93,0.06,,,0.12,VWS V15.00,2013-12-15 02:10:00,
2013-12-14 21:15:00,19.8,18.1,30.03,ENE,57,1.0,8.0,93,0.05,,,0.12,VWS V15.00,2013-12-15 02:15:00,
2013-12-14 21:20:00,19.9,18.2,30.03,NE,53,4.0,8.0,93,0.05,,,0.12,VWS V15.00,2013-12-15 02:20:00,
2013-12-14 21:25:00,20.1,18.4,30.03,NE,50,5.0,9.0,93,0.03,,,0.12,VWS V15.00,2013-12-15 02:25:00,
2013-12-14 21:30:00,20.2,18.5,30.03,ENE,69,4.0,11.0,93,0.03,,,0.12,VWS V15.00,2013-12-15 02:30:00,
2013-12-14 21:35:00,20.3,18.6,30.00,ENE,67,5.0,8.0,93,0.03,,,0.12,VWS V15.00,2013-12-15 02:35:00,
2013-12-14 21:40:00,20.4,18.7,30.00,ESE,114,3.0,10.0,93,0.03,,,0.12,VWS V15.00,2013-12-15 02:40:00,
2013-12-14 21:45:00,20.4,18.7,30.00,ENE,61,7.0,8.0,93,0.02,,,0.12,VWS V15.00,2013-12-15 02:45:00,
2013-12-14 21:50:00,20.6,18.9,29.99,ESE,107,4.0,10.0,93,0.02,,,0.12,VWS V15.00,2013-12-15 02:50:00,
2013-12-14 21:55:00,20.8,19.1,29.99,ENE,63,3.0,9.0,93,0.02,,,0.13,VWS V15.00,2013-12-15 02:55:00,
2013-12-14 22:00:00,21.1,19.4,29.99,ESE,107,9.0,9.0,93,0.02,,,0.13,VWS V15.00,2013-12-15 03:00:00,
2013-12-14 22:05:00,21.3,19.6,29.95,East,99,9.0,13.0,93,0.03,,,0.14,VWS V15.00,2013-12-15 03:05:00,
2013-12-14 22:10:00,21.6,19.9,29.95,ENE,78,5.0,13.0,93,0.03,,,0.14,VWS V15.00,2013-12-15 03:10:00,
2013-12-14 22:15:00,21.8,20.1,29.95,ENE,70,8.0,12.0,93,0.02,,,0.14,VWS V15.00,2013-12-15 03:15:00,
2013-12-14 22:20:00,22.1,20.4,29.92,NE,42,4.0,12.0,93,0.03,,,0.15,VWS V15.00,2013-12-15 03:20:00,
2013-12-14 22:25:00,22.3,20.6,29.92,East,96,7.0,16.0,93,0.03,,,0.15,VWS V15.00,2013-12-15 03:25:00,
2013-12-14 22:30:00,22.5,20.8,29.92,ESE,123,7.0,16.0,93,0.03,,,0.15,VWS V15.00,2013-12-15 03:30:00,
2013-12-14 22:35:00,22.6,20.9,29.90,East,83,2.0,14.0,93,0.04,,,0.16,VWS V15.00,2013-12-15 03:35:00,
2013-12-14 22:40:00,22.7,21.0,29.90,NE,55,4.0,14.0,93,0.04,,,0.16,VWS V15.00,2013-12-15 03:40:00,
2013-12-14 22:45:00,22.9,21.2,29.90,NE,54,4.0,10.0,93,0.05,,,0.17,VWS V15.00,2013-12-15 03:45:00,
2013-12-14 22:50:00,23.1,21.4,29.89,ENE,61,10.0,12.0,93,0.05,,,0.17,VWS V15.00,2013-12-15 03:50:00,
2013-12-14 22:55:00,23.3,21.6,29.89,NE,39,11.0,11.0,93,0.04,,,0.17,VWS V15.00,2013-12-15 03:55:00,
2013-12-14 23:00:00,23.4,21.9,29.89,ENE,70,5.0,11.0,94,0.04,,,0.17,VWS V15.00,2013-12-15 04:00:00,
2013-12-14 23:05:00,23.5,22.0,29.87,North,355,6.0,9.0,94,0.04,,,0.18,VWS V15.00,2013-12-15 04:05:00,
2013-12-14 23:10:00,23.8,22.3,29.87,SE,144,5.0,14.0,94,0.04,,,0.18,VWS V15.00,2013-12-15 04:10:00,
2013-12-14 23:15:00,24.0,22.5,29.87,ENE,78,4.0,10.0,94,0.04,,,0.18,VWS V15.00,2013-12-15 04:15:00,
2013-12-14 23:20:00,24.2,22.7,29.84,NNE,33,7.0,10.0,94,0.05,,,0.19,VWS V15.00,2013-12-15 04:20:00,
2013-12-14 23:25:00,24.4,22.9,29.84,East,84,10.0,10.0,94,0.04,,,0.19,VWS V15.00,2013-12-15 04:25:00,
2013-12-14 23:30:00,24.7,23.2,29.84,NE,40,5.0,13.0,94,0.04,,,0.19,VWS V15.00,2013-12-15 04:30:00,
2013-12-14 23:35:00,24.8,23.3,29.83,ESE,122,8.0,8.0,94,0.04,,,0.20,VWS V15.00,2013-12-15 04:35:00,
2013-12-14 23:40:00,25.1,23.6,29.83,East,87,3.0,8.0,94,0.04,,,0.20,VWS V15.00,2013-12-15 04:40:00,
2013-12-14 23:45:00,25.4,23.9,29.83,ENE,69,5.0,12.0,94,0.04,,,0.20,VWS V15.00,2013-12-15 04:45:00,
2013-12-14 23:50:00,25.7,24.2,29.81,ENE,78,2.0,12.0,94,0.05,,,0.21,VWS V15.00,2013-12-15 04:50:00,
2013-12-14 23:55:00,26.0,24.5,29.81,ENE,61,7.0,11.0,94,0.04,,,0.21,VWS V15.00,2013-12-15 04:55:00,